Regional Weather Roundup
Issued by NWS

Home | Current Version | Previous Version | Graphics & Text | Print | Product List | Glossary On
Versions: 1 2 3 4 5 6 7 8 9 10 11 12 13 14 15 16 17 18 19 20 21 22 23 24 25 26 27 28 29 30 31 32 33 34 35 36 37 38 39 40 41 42 43 44 45 46 47 48 49 50
000
ASUS43 KBIS 212010
RWRND

NORTH DAKOTA REGIONAL WEATHER ROUNDUP
NATIONAL WEATHER SERVICE BISMARCK ND
200 PM CST SAT JAN 21 2017

NOTE: "FAIR" INDICATES FEW OR NO CLOUDS BELOW 12,000 FEET WITH NO
SIGNIFICANT WEATHER AND/OR OBSTRUCTIONS TO VISIBILITY.


NDZ001>003-009>011-017-212100-
NORTHWEST NORTH DAKOTA

CITY           SKY/WX    TMP DP  RH WIND       PRES   REMARKS
WILLISTON      CLOUDY    31  25  78 W10       29.37R
MINOT          CLOUDY    31  28  89 S6        29.36R
MINOT AFB      CLOUDY    29  26  91 SW7       29.35S
$$

NDZ018>021-031>035-040>046-212100-
SOUTHWEST NORTH DAKOTA

CITY           SKY/WX    TMP DP  RH WIND       PRES   REMARKS
BISMARCK       CLOUDY    31  28  89 W6        29.40R FOG
DICKINSON      FAIR      34  26  72 W15       29.34R
GARRISON         N/A     26  24  92 SW6       29.36R WCI  19
HETTINGER ARPT SUNNY     34  26  72 NW12      29.38R
$$

NDZ004>008-012>016-024-026-027-054-212100-
NORTHEAST NORTH DAKOTA

CITY           SKY/WX    TMP DP  RH WIND       PRES   REMARKS
GRAND FORKS    CLOUDY    36  33  89 CALM      29.42R
GRND FRKS AFB  CLOUDY    35  34  95 SE3       29.42R
DEVILS LAKE    LGT RAIN  34  34 100 S5        29.40R VSB 1
$$

NDZ022-023-025-028>030-036>039-047>053-212100-
SOUTHEAST NORTH DAKOTA

CITY           SKY/WX    TMP DP  RH WIND       PRES   REMARKS
FARGO          CLOUDY    39  35  86 SE5       29.40S
JAMESTOWN      FOG       33  33 100 SE3       29.37R VSB 1/4
$$




USA.gov is the U.S. government's official web portal to all federal, state and local government web resources and services.